Find Starlink 36684

NORAD ID: 68719 Int'l Des: 2026-081 Owner: SPXS Country: US Constellation: starlink operational
LEOCIRCULAR

Live-Position

3D-Globus wird geladen...

Über Starlink 36684

Beschreibung wird geladen...

Nächste Überflüge

Passes for default location (London). Set your location on the main map for personalized predictions.

Höhenverlauf

Loading altitude history...

Zweizeiliger Elementsatz

1 68719C 26081V 26105.37618056 .00634530 00000+0 81576-3 0 1057
2 68719 53.1627 238.0365 0007166 303.9040 331.3273 16.06115347 10
Epoch: 15. Apr. 2026 • Age: 24 hours

Aktueller Status

Höhe 270.1 km
Geschwindigkeit 7.75 km/s
Subsatellitenpunkt -52.08°S, 74.79°W
Startdatum 14. Apr. 2026
Alter 1 days
Typ internet

Technische Details

Klassifizierung Payload
Masse 575.00 kg
Trockenmasse 530.00 kg
Gesamtmasse 575.00 kg
Länge 0.30 m
Durchmesser 4.10 m
Spannweite 29.00 m
Form Box + pan
Hersteller SPXS
Bus-Typ Starlink V2MO
Phasenstatus In Orbit
Besitzer/Staat SPXS/US

Most Searched